This is the latest recevied weather packets stored in our database for station/object JF2ZGN-13. If no packets are shown the sender has not sent any weather packets the latest 10 day(s).
| Time | Temp. | Humidity | Pressure | Rain* | Wind** | Luminosity | Snow |
|---|---|---|---|---|---|---|---|
| 1787795307 | 23.89° C | 65% | 909.3 hPa | 0 mm | - | - | - |
| 1787794706 | 24.44° C | 63% | 909.3 hPa | 0 mm | - | - | - |
| 1787794106 | 23.89° C | 67% | 909.4 hPa | 0 mm | - | - | - |
| 1787793505 | 23.89° C | 67% | 909.1 hPa | 0 mm | - | - | - |
| 1787792904 | 23.33° C | 68% | 909.5 hPa | 0 mm | - | - | - |
| 1787792304 | 24.44° C | 67% | 909.6 hPa | 0 mm | - | - | - |
| 1787791704 | 25° C | 65% | 909.6 hPa | 0 mm | - | - | - |
| 1787791103 | 25.56° C | 65% | 909.6 hPa | 0 mm | - | - | - |
| 1787790503 | 25° C | 66% | 909.6 hPa | 0 mm | - | - | - |
| 1787789902 | 25° C | 67% | 909.5 hPa | 0 mm | - | - | - |
| 1787789302 | 25° C | 55% | 909.4 hPa | 0 mm | - | - | - |
| 1787788701 | 24.44° C | 64% | 909.5 hPa | 0 mm | - | - | - |
| 1787788101 | 23.89° C | 65% | 909.3 hPa | 0 mm | - | - | - |
| 1787787500 | 23.89° C | 64% | 909 hPa | 0 mm | - | - | - |
| 1787786900 | 23.33° C | 70% | 908.9 hPa | 0 mm | - | - | - |
| 1787786300 | 22.78° C | 72% | 908.9 hPa | 0 mm | - | - | - |
| 1787785699 | 22.22° C | 72% | 908.8 hPa | 0 mm | - | - | - |
| 1787785099 | 21.67° C | 75% | 908.7 hPa | 0 mm | - | - | - |
| 1787784499 | 21.67° C | 75% | 908.7 hPa | 0 mm | - | - | - |
| 1787783897 | 21.67° C | 75% | 908.8 hPa | 0 mm | - | - | - |
| 1787783297 | 21.67° C | 73% | 908.5 hPa | 0 mm | - | - | - |
| 1787782697 | 21.67° C | 71% | 908.8 hPa | 0 mm | - | - | - |
| 1787782096 | 21.67° C | 71% | 908.7 hPa | 0 mm | - | - | - |
| 1787781496 | 21.67° C | 68% | 908.7 hPa | 0 mm | - | - | - |
| 1787780895 | 21.11° C | 69% | 908.5 hPa | 0 mm | - | - | - |
* Rain since midnight (hover to see other rain measurements)
** Current wind speed in m/s (hover to see current wind gust speed)